Overview Statistics Trail Chart Weather Telemetry Raw packets
 

This is the latest recevied weather packets stored in our database for station/object KD7AWQ. If no packets are shown the sender has not sent any weather packets the latest 10 day(s).

<< 57 58 59 60 61 62 63 >>
Time Temp. Humidity Pressure Rain* Wind** Luminosity Snow
1788030168 35° C 23% 1188.3 hPa 0 mm - 1008 W/m² -
1788029875 35° C 23% 1188.3 hPa 0 mm - 1005 W/m² -
1788029558 35° C 23% 1188.4 hPa 0 mm - 1004 W/m² -
1788029258 35° C 22% 1188.6 hPa 0 mm - 990 W/m² -
1788028953 34.44° C 23% 1188.7 hPa 0 mm - 991 W/m² -
1788028652 34.44° C 23% 1188.8 hPa 0 mm - 989 W/m² -
1788028346 35° C 23% 1188.7 hPa 0 mm - 985 W/m² -
1788028042 34.44° C 23% 1188.8 hPa 0 mm - 932 W/m² -
1788027738 35° C 23% 1189.1 hPa 0 mm - 940 W/m² -
1788027437 35° C 24% 1188.9 hPa 0 mm - 965 W/m² -
1788027132 34.44° C 24% 1189.1 hPa 0 mm - 955 W/m² -
1788026831 33.89° C 24% 1189.2 hPa 0 mm - 944 W/m² -
1788026527 34.44° C 24% 1189.3 hPa 0 mm - 937 W/m² -
1788026227 34.44° C 24% 1189.3 hPa 0 mm - 928 W/m² -
1788025927 33.89° C 24% 1189.6 hPa 0 mm - 916 W/m² -
1788025621 33.89° C 24% 1189.5 hPa 0 mm - 909 W/m² -
1788025320 34.44° C 24% 1189.5 hPa 0 mm - 883 W/m² -
1788025020 33.33° C 25% 1189.8 hPa 0 mm - 857 W/m² -
1788024715 33.89° C 25% 1189.6 hPa 0 mm - 841 W/m² -
1788024411 33.33° C 25% 1189.9 hPa 0 mm - 821 W/m² -
1788024106 33.33° C 25% 1189.9 hPa 0 mm - 823 W/m² -
1788023801 32.78° C 26% 1190 hPa 0 mm - 834 W/m² -
1788023497 33.33° C 25% 1189.8 hPa 0 mm - 818 W/m² -
1788023187 33.33° C 26% 1189.8 hPa 0 mm - 798 W/m² -
1788022886 32.78° C 25% 1189.8 hPa 0 mm - 782 W/m² -

* Rain latest hour (hover to see other rain measurements)
** Current wind speed in m/s (hover to see current wind gust speed)